• In Deutschland
  • Länderverzeichnis
  • Für 7 Tage
  • Wassertemperatur
  • Satellitenkarten
  • Wetterkarte
  • Widgets
  • user-avatar
    Anmelden

    Stündliche Wetter Detmold

    Heute, 16 Juli, Montag

    Zeit Temperatur Niederschläge Wind Luftdruck Luftfeuchtigkeit
    00:00 +16°C° 0 mm 2 m/S 749 mmHg 82%
    01:00 +15°C° 0 mm 1 m/S 749 mmHg 85%
    02:00 +15°C° 0 mm 1 m/S 749 mmHg 86%
    03:00 +15°C° 0 mm 1 m/S 749 mmHg 87%
    04:00 +14°C° 0 mm 1 m/S 749 mmHg 88%
    05:00 +16°C° 0 mm 1 m/S 749 mmHg 84%
    06:00 +18°C° 0 mm 1 m/S 749 mmHg 80%
    07:00 +20°C° 0 mm 1 m/S 749 mmHg 76%
    08:00 +20°C° 0 mm 2 m/S 749 mmHg 70%
    09:00 +23°C° 0 mm 2 m/S 749 mmHg 64%
    10:00 +25°C° 0 mm 2 m/S 749 mmHg 58%
    11:00 +26°C° 0 mm 2 m/S 748 mmHg 54%
    12:00 +26°C° 0 mm 2 m/S 748 mmHg 51%
    13:00 +27°C° 0 mm 2 m/S 748 mmHg 47%
    14:00 +27°C° 0 mm 2 m/S 747 mmHg 46%
    15:00 +28°C° 0 mm 2 m/S 747 mmHg 45%
    16:00 +28°C° 0 mm 2 m/S 747 mmHg 45%
    17:00 +27°C° 0 mm 1 m/S 747 mmHg 50%
    18:00 +26°C° 0 mm 1 m/S 747 mmHg 56%
    19:00 +25°C° 0 mm 1 m/S 747 mmHg 61%
    20:00 +23°C° 0 mm 1 m/S 747 mmHg 64%
    21:00 +21°C° 0 mm 1 m/S 747 mmHg 68%
    22:00 +20°C° 0 mm 1 m/S 747 mmHg 71%
    23:00 +19°C° 0 mm 1 m/S 748 mmHg 74%

    Morgen, 17 Juli, Dienstag

    Zeit Temperatur Niederschläge Wind Luftdruck Luftfeuchtigkeit
    00:00 +18°C° 0 mm 1 m/S 748 mmHg 78%
    01:00 +18°C° 0 mm 1 m/S 748 mmHg 81%
    02:00 +15°C° 0 mm 0 m/S 748 mmHg 81%
    03:00 +15°C° 0 mm 0 m/S 748 mmHg 82%
    04:00 +15°C° 0 mm 0 m/S 747 mmHg 83%
    05:00 +16°C° 0 mm 0 m/S 748 mmHg 79%
    06:00 +18°C° 0 mm 0 m/S 748 mmHg 75%
    07:00 +19°C° 0 mm 0 m/S 748 mmHg 72%
    08:00 +23°C° 0 mm 1 m/S 748 mmHg 65%
    09:00 +25°C° 0 mm 1 m/S 748 mmHg 58%
    10:00 +27°C° 0 mm 1 m/S 748 mmHg 52%
    11:00 +27°C° 0 mm 1 m/S 748 mmHg 48%
    12:00 +28°C° 0 mm 2 m/S 748 mmHg 44%
    13:00 +29°C° 0 mm 2 m/S 747 mmHg 41%
    14:00 +29°C° 0 mm 2 m/S 747 mmHg 42%
    15:00 +29°C° 0 mm 2 m/S 747 mmHg 42%
    16:00 +29°C° 0 mm 2 m/S 747 mmHg 43%
    17:00 +28°C° 0 mm 2 m/S 747 mmHg 49%
    18:00 +27°C° 0 mm 2 m/S 747 mmHg 54%
    19:00 +26°C° 0 mm 1 m/S 747 mmHg 59%
    20:00 +24°C° 0 mm 1 m/S 748 mmHg 63%
    21:00 +23°C° 0 mm 1 m/S 748 mmHg 66%
    22:00 +21°C° 0 mm 1 m/S 748 mmHg 70%
    23:00 +19°C° 0,2 mm 2 m/S 748 mmHg 76%

    übermorgen, 18 Juli, Mittwoch

    Zeit Temperatur Niederschläge Wind Luftdruck Luftfeuchtigkeit
    00:00 +18°C° 0,2 mm 2 m/S 748 mmHg 82%
    01:00 +17°C° 0,2 mm 3 m/S 748 mmHg 88%
    02:00 +17°C° 0,1 mm 3 m/S 749 mmHg 91%
    03:00 +16°C° 0,1 mm 2 m/S 749 mmHg 93%
    04:00 +15°C° 0,1 mm 2 m/S 749 mmHg 96%
    05:00 +16°C° 0 mm 2 m/S 749 mmHg 92%
    06:00 +17°C° 0 mm 3 m/S 749 mmHg 89%
    07:00 +17°C° 0 mm 3 m/S 750 mmHg 85%
    08:00 +19°C° 0 mm 3 m/S 750 mmHg 77%
    09:00 +20°C° 0 mm 4 m/S 750 mmHg 69%
    10:00 +21°C° 0 mm 4 m/S 750 mmHg 61%
    11:00 +22°C° 0 mm 4 m/S 750 mmHg 57%
    12:00 +23°C° 0 mm 4 m/S 750 mmHg 54%
    13:00 +25°C° 0 mm 4 m/S 750 mmHg 50%
    14:00 +25°C° 0 mm 4 m/S 750 mmHg 49%
    15:00 +26°C° 0 mm 3 m/S 750 mmHg 49%
    16:00 +26°C° 0 mm 3 m/S 750 mmHg 48%
    17:00 +25°C° 0 mm 3 m/S 750 mmHg 53%
    18:00 +24°C° 0 mm 3 m/S 750 mmHg 57%
    19:00 +23°C° 0 mm 2 m/S 750 mmHg 62%
    20:00 +20°C° 0 mm 2 m/S 751 mmHg 67%
    21:00 +18°C° 0 mm 2 m/S 751 mmHg 72%
    22:00 +16°C° 0 mm 2 m/S 751 mmHg 78%
    23:00 +15°C° 0 mm 2 m/S 751 mmHg 80%

    19 Juli, Donnerstag

    Zeit Temperatur Niederschläge Wind Luftdruck Luftfeuchtigkeit
    00:00 +15°C° 0 mm 1 m/S 751 mmHg 83%
    01:00 +14°C° 0 mm 1 m/S 751 mmHg 86%
    02:00 +13°C° 0 mm 1 m/S 751 mmHg 86%
    03:00 +13°C° 0 mm 1 m/S 751 mmHg 85%
    04:00 +12°C° 0 mm 0 m/S 751 mmHg 85%
    05:00 +13°C° 0 mm 0 m/S 751 mmHg 80%
    06:00 +15°C° 0 mm 0 m/S 751 mmHg 74%
    07:00 +16°C° 0 mm 0 m/S 752 mmHg 69%
    08:00 +20°C° 0 mm 1 m/S 751 mmHg 62%
    09:00 +22°C° 0 mm 1 m/S 751 mmHg 55%
    10:00 +24°C° 0 mm 1 m/S 751 mmHg 49%
    11:00 +25°C° 0 mm 1 m/S 751 mmHg 47%
    12:00 +25°C° 0 mm 1 m/S 751 mmHg 45%
    13:00 +26°C° 0 mm 1 m/S 751 mmHg 44%
    14:00 +26°C° 0 mm 1 m/S 750 mmHg 45%
    15:00 +26°C° 0 mm 1 m/S 750 mmHg 46%
    16:00 +26°C° 0 mm 1 m/S 750 mmHg 46%
    17:00 +25°C° 0 mm 1 m/S 750 mmHg 51%
    18:00 +25°C° 0 mm 1 m/S 750 mmHg 55%
    19:00 +24°C° 0 mm 2 m/S 750 mmHg 60%
    20:00 +21°C° 0 mm 2 m/S 750 mmHg 64%
    21:00 +20°C° 0 mm 2 m/S 750 mmHg 67%
    22:00 +18°C° 0 mm 2 m/S 750 mmHg 71%
    23:00 +17°C° 0 mm 2 m/S 750 mmHg 73%

    20 Juli, Freitag

    Zeit Temperatur Niederschläge Wind Luftdruck Luftfeuchtigkeit
    00:00 +17°C° 0 mm 2 m/S 749 mmHg 75%
    01:00 +16°C° 0 mm 2 m/S 749 mmHg 77%
    02:00 +16°C° 0 mm 2 m/S 749 mmHg 78%
    03:00 +16°C° 0 mm 1 m/S 749 mmHg 78%
    04:00 +16°C° 0 mm 1 m/S 749 mmHg 79%
    05:00 +18°C° 0 mm 1 m/S 748 mmHg 77%
    06:00 +18°C° 0 mm 1 m/S 748 mmHg 74%
    07:00 +19°C° 0 mm 1 m/S 748 mmHg 72%
    08:00 +21°C° 0 mm 1 m/S 748 mmHg 67%
    09:00 +22°C° 0 mm 1 m/S 748 mmHg 62%
    10:00 +24°C° 0 mm 2 m/S 748 mmHg 57%
    11:00 +25°C° 0 mm 2 m/S 748 mmHg 54%
    12:00 +26°C° 0 mm 2 m/S 747 mmHg 51%
    13:00 +27°C° 0 mm 2 m/S 747 mmHg 48%
    14:00 +27°C° 0 mm 2 m/S 747 mmHg 47%
    15:00 +27°C° 0 mm 2 m/S 746 mmHg 47%
    16:00 +28°C° 0 mm 2 m/S 746 mmHg 47%
    17:00 +27°C° 0 mm 2 m/S 746 mmHg 53%
    18:00 +26°C° 0 mm 2 m/S 746 mmHg 58%
    19:00 +25°C° 0 mm 2 m/S 745 mmHg 64%
    20:00 +23°C° 0,1 mm 2 m/S 745 mmHg 69%
    21:00 +21°C° 0,1 mm 2 m/S 745 mmHg 75%
    22:00 +19°C° 0,1 mm 2 m/S 745 mmHg 81%
    23:00 +20°C° 0 mm 1 m/S 745 mmHg 83%

    21 Juli, Samstag

    Zeit Temperatur Niederschläge Wind Luftdruck Luftfeuchtigkeit
    00:00 +19°C° 0 mm 1 m/S 744 mmHg 85%
    01:00 +19°C° 0 mm 1 m/S 744 mmHg 87%
    02:00 +18°C° 0 mm 1 m/S 744 mmHg 88%
    03:00 +18°C° 0 mm 1 m/S 744 mmHg 89%
    04:00 +18°C° 0 mm 1 m/S 743 mmHg 89%
    05:00 +19°C° 0,1 mm 1 m/S 743 mmHg 87%
    06:00 +20°C° 0,1 mm 1 m/S 743 mmHg 84%
    07:00 +20°C° 0,1 mm 1 m/S 743 mmHg 82%
    08:00 +22°C° 0,4 mm 1 m/S 743 mmHg 78%
    09:00 +23°C° 0,4 mm 1 m/S 743 mmHg 73%
    10:00 +24°C° 0,4 mm 1 m/S 743 mmHg 69%
    11:00 +25°C° 0,9 mm 1 m/S 743 mmHg 69%
    12:00 +25°C° 0,9 mm 2 m/S 743 mmHg 69%
    13:00 +26°C° 0,9 mm 2 m/S 743 mmHg 69%
    14:00 +25°C° 1,6 mm 3 m/S 743 mmHg 71%
    15:00 +25°C° 1,6 mm 3 m/S 743 mmHg 74%
    16:00 +25°C° 1,6 mm 3 m/S 743 mmHg 77%
    17:00 +24°C° 0,8 mm 3 m/S 743 mmHg 79%
    18:00 +22°C° 0,8 mm 3 m/S 743 mmHg 81%
    19:00 +23°C° 0,8 mm 2 m/S 743 mmHg 83%
    20:00 +21°C° 0,1 mm 2 m/S 744 mmHg 87%
    21:00 +20°C° 0,1 mm 2 m/S 744 mmHg 90%
    22:00 +18°C° 0,1 mm 2 m/S 744 mmHg 94%
    23:00 +18°C° 0,1 mm 2 m/S 744 mmHg 95%
    Mehr zeigen